Bridgeport, CT

9:55 PM EDT on April 25, 2017 (GMT -0400)
Sikorsky Memorial

Weather History for KBDR - March, 2014

Change the Weather History Date:

Wednesday, March 19, 2014

  Actual Average Record
Temperature  
Mean Temperature 35 °F 40 °F  
Max Temperature 41 °F 48 °F 68 °F (2012)
Min Temperature 28 °F 32 °F 4 °F (1967)
Degree Days  
Heating Degree Days 30 25  
Month to date heating degree days 620 523  
Since 1 July heating degree days 4668 4410  
Cooling Degree Days 0 0  
Month to date cooling degree days 0 0  
Year to date cooling degree days 0 0  
Moisture  
Dew Point 30 °F    
Average Humidity 85    
Maximum Humidity 100    
Minimum Humidity 69    
Precipitation  
Precipitation 0.91 in 0.14 in 1.46 in (1983)
Month to date precipitation 1.25 2.41  
Year to date precipitation 8.23 8.30  
Snow  
Snow 0.00 in 0.20 in 9.80 in (1956)
Month to date snowfall 0.1 3.9  
Since 1 July snowfall 56.3 25.5  
Snow Depth 0.00 in    
Sea Level Pressure  
Sea Level Pressure 30.16 in    
Wind  
Wind Speed 14 mph (ENE)    
Max Wind Speed 22 mph    
Max Gust Speed 27 mph    
Visibility 8 miles    
Events Rain    
T = Trace of Precipitation, MM = Missing Value Source: NWS Daily Summary

Daily Weather History Graph

Daily Weather History Graph

Search for Another Location

Airport or City:

Trip Planner

Search our weather history database for the weather conditions in past years. The results will help you decide how hot, cold, wet, or windy it might be!

Date:

Astronomy

Mar. 19, 2014 Rise Set
Actual Time 6:57 AM EDT 7:03 PM EDT
Civil Twilight 6:30 AM EDT 7:31 PM EDT
Nautical Twilight 5:58 AM EDT 8:03 PM EDT
Astronomical Twilight 5:25 AM EDT 8:36 PM EDT
Moon 10:21 PM EDT (3/19) 8:19 AM EDT (3/19)
Length of Visible Light 13h 00m
Length of Day
12h 05m
Waning Gibbous, 91% of the Moon is Illuminated
Mar 19
Waning Gibbous
Mar 23
Last Quarter
Mar 30
New
Apr 7
First Quarter
Apr 15
Full

Hourly Weather History & Observations

Time (EDT) Temp. Windchill Dew Point Humidity Pressure Visibility Wind Dir Wind Speed Gust Speed Precip Events Conditions
12:52 AM 32.0 °F 25.6 °F 26.1 °F 79% 30.31 in 10.0 mi NE 6.9 mph - N/A   Clear
1:52 AM 30.9 °F 24.3 °F 25.0 °F 79% 30.30 in 10.0 mi ENE 6.9 mph - N/A   Clear
2:52 AM 30.9 °F 24.3 °F 25.0 °F 79% 30.30 in 10.0 mi NE 6.9 mph - N/A   Clear
3:52 AM 30.0 °F 23.2 °F 24.1 °F 79% 30.30 in 10.0 mi NNE 6.9 mph - N/A   Clear
4:52 AM 28.9 °F 20.4 °F 23.0 °F 78% 30.30 in 10.0 mi NNE 9.2 mph - N/A   Clear
5:52 AM 28.0 °F 21.7 °F 21.9 °F 78% 30.32 in 10.0 mi NE 5.8 mph - N/A   Clear
6:52 AM 28.0 °F 19.3 °F 21.0 °F 75% 30.34 in 10.0 mi NNE 9.2 mph - N/A   Clear
7:52 AM 30.0 °F 21.1 °F 21.9 °F 72% 30.35 in 10.0 mi NE 10.4 mph - N/A   Mostly Cloudy
8:52 AM 32.0 °F 23.0 °F 24.1 °F 73% 30.33 in 10.0 mi ENE 11.5 mph - N/A   Mostly Cloudy
9:52 AM 34.0 °F 24.6 °F 26.1 °F 73% 30.31 in 10.0 mi ENE 13.8 mph - N/A   Overcast
10:52 AM 35.1 °F 25.2 °F 28.9 °F 78% 30.31 in 10.0 mi East 16.1 mph - N/A   Overcast
11:52 AM 37.0 °F 27.4 °F 30.0 °F 76% 30.30 in 10.0 mi East 17.3 mph - N/A   Overcast
12:52 PM 37.9 °F 28.9 °F 30.9 °F 76% 30.27 in 10.0 mi East 16.1 mph - N/A   Overcast
1:52 PM 39.0 °F 30.6 °F 32.0 °F 76% 30.23 in 10.0 mi East 15.0 mph - N/A   Overcast
2:52 PM 39.0 °F 29.9 °F 32.0 °F 76% 30.20 in 10.0 mi ENE 17.3 mph - N/A   Overcast
3:52 PM 39.0 °F 29.0 °F 32.0 °F 76% 30.16 in 10.0 mi East 20.7 mph - N/A   Overcast
4:26 PM 39.0 °F 29.9 °F 32.0 °F 76% 30.14 in 10.0 mi East 17.3 mph - N/A   Overcast
4:52 PM 37.9 °F 28.9 °F 32.0 °F 79% 30.13 in 10.0 mi East 16.1 mph - N/A   Overcast
5:52 PM 37.0 °F 28.1 °F 32.0 °F 82% 30.11 in 10.0 mi East 15.0 mph - N/A   Overcast
6:52 PM 37.0 °F 27.4 °F 33.1 °F 86% 30.06 in 9.0 mi East 17.3 mph - 0.00 in Rain Light Rain
7:52 PM 36.0 °F 26.3 °F 34.0 °F 93% 30.04 in 10.0 mi East 16.1 mph - 0.00 in Rain Light Rain
8:23 PM 36.0 °F 27.1 °F 34.0 °F 93% 30.04 in 4.0 mi ENE 13.8 mph - 0.01 in Rain Rain
8:52 PM 36.0 °F 26.0 °F 34.0 °F 93% 29.99 in 7.0 mi ENE 17.3 mph - 0.03 in   Overcast
9:52 PM 37.0 °F 28.5 °F 35.1 °F 93% 29.99 in 7.0 mi NE 13.8 mph - 0.01 in Rain Light Rain
10:09 PM 37.0 °F 26.7 °F 35.1 °F 93% 29.94 in 2.5 mi ENE 19.6 mph 25.3 mph 0.10 in Rain Heavy Rain
10:22 PM 37.0 °F 26.7 °F 35.1 °F 93% 29.94 in 4.0 mi ENE 19.6 mph - 0.14 in Rain Light Rain
10:52 PM 37.0 °F 27.4 °F 35.1 °F 93% 29.93 in 2.5 mi ENE 17.3 mph - 0.26 in Rain Rain
11:00 PM 37.0 °F 27.0 °F 35.1 °F 93% 29.91 in 4.0 mi ENE 18.4 mph - 0.01 in Rain Light Rain
11:32 PM 37.0 °F 26.7 °F 36.0 °F 96% 29.86 in 2.5 mi ENE 19.6 mph - 0.11 in Rain Heavy Rain
11:52 PM 37.0 °F 27.4 °F 37.0 °F 100% 29.88 in 2.0 mi NE 17.3 mph - 0.23 in Rain Heavy Rain